Location: Oklahoma City
(35.4680°N, 97.5160°W)
Time: 17:32:59
(UTC-05:00)

ISS - All Passes

Search period start: 23 May 2017 00:00
Search period end: 02 June 2017 00:00
Orbit: 402 x 409 km, 51.6° (Epoch: 24 May)

Date Brightness Start Highest point End Pass type
(mag) Time Alt. Az. Time Alt. Az. Time Alt. Az.
23 May - 00:22:34 10° NW 00:23:33 11° NNW 00:24:32 10° N visible
23 May - 05:13:44 10° NNW 05:16:46 34° NE 05:19:47 10° ESE visible
23 May - 06:50:43 10° W 06:53:04 18° SW 06:55:24 10° S daylight
23 May - 21:51:18 10° SSW 21:54:31 55° SE 21:57:45 10° ENE visible
23 May - 23:29:02 10° WNW 23:31:14 16° NNW 23:33:27 10° NNE visible
24 May - 04:22:04 10° NNW 04:24:35 20° NNE 04:27:05 10° E visible
24 May - 05:58:06 10° WNW 06:01:10 38° SW 06:04:13 10° SSE daylight
24 May - 20:59:48 10° S 21:02:34 25° SE 21:05:22 10° ENE visible
24 May - 22:36:08 10° W 22:39:00 27° NW 22:41:52 10° NNE visible
25 May - 03:30:40 10° N 03:32:17 13° NNE 03:33:53 10° NE visible
25 May - 05:05:54 10° NW 05:09:11 87° SW 05:12:26 10° SE visible
25 May - 20:09:13 10° SSE 20:10:42 13° SE 20:12:11 10° E daylight
25 May - 21:43:38 10° WSW 21:46:51 50° NW 21:50:04 10° NE visible
26 May - 04:13:56 10° NW 04:17:06 43° NE 04:20:13 10° ESE visible
26 May - 05:51:28 10° W 05:53:17 14° SW 05:55:05 10° SSW visible
26 May - 20:51:28 10° SW 20:54:45 76° SE 20:58:03 10° NE daylight
26 May - 22:29:45 10° WNW 22:31:36 14° NNW 22:33:27 10° N visible
27 May - 03:22:09 10° NNW 03:24:54 24° NNE 03:27:38 10° E visible
27 May - 04:58:30 10° WNW 05:01:22 29° SW 05:04:14 10° SSE visible
27 May - 19:59:45 10° SSW 20:02:45 33° SE 20:05:46 10° ENE daylight
27 May - 21:36:38 10° W 21:39:17 22° NNW 21:41:56 10° NNE visible
28 May - 02:30:35 10° N 02:32:37 15° NNE 02:34:37 10° ENE visible
28 May - 04:06:08 10° NW 04:09:23 65° SW 04:12:36 10° SE night (unlit)
28 May - 19:08:39 10° S 19:10:48 16° SE 19:12:57 10° E daylight
28 May - 20:43:57 10° WSW 20:47:03 38° NW 20:50:10 10° NNE daylight
29 May - 01:39:48 10° NNE 01:40:13 10° NNE 01:40:36 10° NNE visible
29 May - 03:14:03 10° NW 03:17:17 57° NE 03:20:30 10° ESE night (unlit)
29 May - 04:52:34 10° WSW 04:53:22 11° SW 04:54:10 10° SW night (unlit)
29 May - 19:51:36 10° SW 19:54:53 81° NW 19:58:12 10° NE daylight
29 May - 21:30:26 10° NW 21:31:50 12° NNW 21:33:15 10° N visible
30 May - 02:22:09 10° NNW 02:25:06 29° NE 02:28:00 10° E visible
30 May - 03:58:51 10° WNW 04:01:27 22° SW 04:04:03 10° S night (unlit)
30 May - 18:59:40 10° SSW 19:02:49 45° SE 19:05:59 10° ENE daylight
30 May - 20:37:03 10° WNW 20:39:28 18° NNW 20:41:52 10° NNE daylight
31 May - 01:30:27 10° NNW 01:32:48 18° NNE 01:35:07 10° ENE visible
31 May - 03:06:18 10° WNW 03:09:27 47° SW 03:12:36 10° SSE night (unlit)
31 May - 18:08:14 10° S 18:10:48 21° SE 18:13:23 10° ENE daylight
31 May - 19:44:11 10° W 19:47:09 31° NW 19:50:09 10° NNE daylight
01 Jun - 00:39:07 10° N 00:40:23 12° NNE 00:41:40 10° NE visible
01 Jun - 02:14:04 10° NW 02:17:21 76° NE 02:20:37 10° SE night (unlit)
01 Jun - 17:18:23 10° SE 17:18:52 10° SE 17:19:20 10° ESE daylight
01 Jun - 18:51:41 10° WSW 18:54:56 61° NW 18:58:12 10° NE daylight
01 Jun - 20:31:16 10° NW 20:31:59 11° NNW 20:32:43 10° N daylight
